Location: Biberach/Riss
(48.0994°N, 9.7902°E)
Time: 02:31:33
(UTC+01:00)

ISS - Visible Passes

Search period start: 08 December 2021 00:00
Search period end: 18 December 2021 00:00
Orbit: 417 x 422 km, 51.6° (Epoch: 07 December)

Date Brightness Start Highest point End Pass type
(mag) Time Alt. Az. Time Alt. Az. Time Alt. Az.
08 Dec -0.8 18:04:30 10° W 18:06:54 18° SW 18:09:17 10° S visible
09 Dec -1.4 17:16:45 10° W 17:19:40 27° SW 17:22:34 10° SSE visible
11 Dec -0.1 17:20:02 10° WSW 17:21:17 12° SW 17:22:32 10° SSW visible
